Burkemont, North Carolina
Current Conditions -  °F | °C
As of 4:35 AM on Thursday 23 Oct 2014 (Local Time) from KMRN Reporting Station
Clear Clear  
Wind Chill: 33°   Ceiling: Unl
Heat Index: 33°   Visibility: 7mi
Dew Point: 33°   Wind: 0mph
Humidity: 100%   Direction: NA
Pressure: 30.12"   Gusts: NA
Location:  35.7567°N, 81.7518°W
Report Text: KMRN 230835Z AUTO 00000KT 7SM CLR 00/00 A3012 RMK AO2 T00030003
Loading
Personal Weather Stations






























Interactive Weather Map
Tropical Storm Tracking
New forecast layout! Learn more

10-Day Weather Forecast

Advertisements
Track Severe Weather on mobile